STARLINK-3785, 52375

Orbit data source: Space-Track

STARLINK-3785, 52375 is a payload satellite owned by SpaceX/Seattle (US) in LEO that was launched on Fri, 29 Apr 2022 UTC via an FALCON 9 launch vehicle from the Air Force Eastern Test Range (AFETR). Payload-class satellites include a variety of spacecraft equipped with specific instruments for various scientific and technological missions. These include communications satellites like Starlink; space stations such as the ISS; scientific satellites like the Hubble; Earth observation satellites from companies like Planet Labs, Umbra, and HawkEye 360; GPS; miniature CubeSats for education and research; and military/defense satellites.

Loading next visibility...
Identifier
52375, 2022-045AW
Orbit
LEO
Country
Flag of USUS
Related business
Manufacturer
SpaceX/Seattle
Mission
Operational Commercial Communications
Bus & Motor
STARLINK, Unknown motor
Mass
297 kg wet, ~275 kg dry
Launch date (UTC)
2022-04-29 (4 years ago)
Launch vehicle
FALCON 9
Launch site
Air Force Eastern Test Range (AFETR)
Object type
Payload
Rocket body
Debris
Shape & HBR
Box + 1 Pan, 10.1 m
Radar Cross Section
11.087 m², Large (>1 m²)

Expand to show TLE details & history
Last TLE update: 17 hours ago

TLE from 17 hours ago
0 STARLINK-3785
1 52375U 22045AW  25349.89615787  .00000538  00000-0  51918-4 0  9993
2 52375  53.2158 205.2845 0001581  91.1401 268.9773 15.08835823203274
Epoch: 2025-12-15T21:30Z
TLE epoch observation values (Epoch: 2025-12-15T21:30:28.039Z)
Latitude
0.00001°
Longitude
157.87953°
Altitude
540.673 km
Speed
7.593 km/s
True Right ascension
13h 41m 08s
True Declination
0° 00' 00"
Sunlit
Object was in daylight at epoch
Visualization orbit readout
Latitude
Unknown
Longitude
Unknown
Altitude
Unknown
Speed
Unknown
Apparent Right ascension
Unknown
Apparent Declination
Unknown
Sunlit
N/A
Visualization observer readout
Local Sidereal Time
13:41:28
Azimuth
Unknown
Elevation
Unknown
Doppler factor
Unknown
Orbital elements
Apogee altitude
541.095 km
Perigee altitude
538.908 km
Semi-major axis
6,918.138 km
Eccentricity
0.00016
Inclination
53.2158°
RAAN
205.2845°
Arg. of periapsis
91.1401°
True anomaly
268.95919°
Mean anomaly
268.9773°
Eccentric anomaly
268.96824°
Mean motion
3.77189 °/min
Orbital period
95.44 mins
BSTAR
0.000051918
Loading maneuver chart data...
Computing Atmospheric mass density...
Loading historical data...
Loading historical data...
Loading historical data...
Loading historical data...
Loading historical data...
Loading historical data...
Loading historical data...

Documentation

Showing up to 5 results
|